Regional Weather Roundup
Issued by NWS

Home | Current Version | Previous Version | Text Only | Print | Product List | Glossary On
Versions: 1 2 3 4 5 6 7 8 9 10 11 12 13 14 15 16 17 18 19 20 21 22 23 24 25 26 27 28 29 30 31 32 33 34 35 36 37 38 39 40 41 42 43 44 45 46 47 48 49 50
658
ASUS44 KLIX 210501
RWRLA
LOUISIANA WEATHER ROUNDUP
NATIONAL WEATHER SERVICE NEW ORLEANS LA
1200 AM CDT MON APR 21 2014

NOTE: "FAIR" INDICATES FEW OR NO CLOUDS BELOW 12,000 FEET WITH NO
      SIGNIFICANT WEATHER AND/OR OBSTRUCTIONS TO VISIBILITY.
      SKY/WX - SKY CONDITION AND SIGNIFICANT WEATHER.
      TMP - AIR TEMPERATURE.    DP   - DEWPOINT TEMPERATURE.
      RH  - RELATIVE HUMIDITY.  PRES - PRESSURE.
      HX  - HEAT INDEX.         WCI  - WIND CHILL INDEX.

*  THESE STATIONS ARE NOT NWS OR FAA STATIONS AND ARE NOT UNDER
   NWS QUALITY CONTROL.

LAZ040-048-061>063-065-066-069-210600-
SOUTHEAST LOUISIANA

CITY           SKY/WX    TMP DP  RH WIND       PRES   REMARKS
N.O. AUDUBON     N/A     65  61  87 MISG        N/A
N.O. INTL ARPT PTCLDY    65  61  87 SE7       30.14S
N.O. LAKEFRONT CLEAR     64  60  87 SE10      30.15S
N.O. DOWNTOWN* FAIR      66  57  72 S6        30.15S
SLIDELL        CLEAR     62  58  86 SE5       30.14S
BATON ROUGE    CLEAR     67  55  65 SW6       30.11S
BOOTHVILLE     PTCLDY    60  58  92 CALM      30.16S
BELLE CHASSE   CLEAR    N/A N/A N/A SE6       30.14S
BOGALUSA*        N/A     63  58  84 S3        30.16S
GALLIANO*      CLOUDY    67  61  81 E6        30.15S
NEW ROADS*     NOT AVBL
GONZALES*      FAIR      62  60  96 CALM      30.12R
HAMMOND*       NOT AVBL
HOUMA*           N/A     62  60  92 CALM      30.13F FOG
PORT FOURCHON* MOCLDY    66  61  82 SE10      30.15F

$$

LAZ041-044-053-054-210600-
SOUTHWEST LOUISIANA

CITY           SKY/WX    TMP DP  RH WIND       PRES   REMARKS
LAKE CHARLES   CLEAR     60  58  92 CALM      30.11S FOG
LAFAYETTE      CLEAR     64  61  90 CALM      30.12R
PATTERSON      CLEAR     63  61  94 CALM      30.15S
SALT POINT       N/A     69  65  86 VRB3      30.11F
NEW IBERIA     CLEAR     64  61  90 CALM      30.12S
CHENAULT AIRPK CLEAR     67  60  78 SW3       30.12S

$$

LAZ027-028-210600-
CENTRAL LOUISIANA

CITY           SKY/WX    TMP DP  RH WIND       PRES   REMARKS
FORT POLK      CLEAR     65  55  70 CALM      30.10S
ALEXANDRIA INT CLEAR     67  57  70 W3        30.08S
ALEXANDRIA     CLEAR     59  56  89 CALM      30.09S

$$

LAZ001-002-210600-
NORTHWEST LOUISIANA

CITY           SKY/WX    TMP DP  RH WIND       PRES   REMARKS
SHREVEPORT     CLOUDY    66  59  78 W3        30.07R
BARKSDALE AFB  NOT AVBL
DTN SHREVEPORT MOCLDY    63  58  83 CALM      30.07S

$$

LAZ014-016-210600-
NORTHEAST LOUISIANA

CITY           SKY/WX    TMP DP  RH WIND       PRES   REMARKS
MONROE         CLEAR     59  55  87 CALM      30.09S
TALLULAH       CLEAR     63  57  81 CALM      30.10S

$$




USA.gov is the U.S. government's official web portal to all federal, state and local government web resources and services.